Location: Wildlife_Club
(35.6000°N, 81.4330°W)
Time: 08:48:00
(UTC-04:00)

A-11 Canister half - Pass Details

Date: 23 June 2019
Orbit: 1526 x 1683 km, 47.3° (Epoch: 16 August)

Event Time Altitude Azimuth Distance (km) Brightness Sun altitude
Exits shadow 02:23:11 13° 128° (SE) 3,573 10.7 -29.5°
Maximum altitude 02:24:04 13° 123° (ESE) 3,555 10.7 -29.5°
Drops below altitude 10° 02:27:41 10° 99° (E) 3,752 11.1 -29.3°
Sets 02:33:09 0° 74° (ENE) 4,710 12.0 -29.0°
